Flag for Brazil Weather past 2 weeks in Ribeirão Prêto, São Paulo, Brazil

Now
82 °F

Sunny.


Feels Like: 81 °F
Forecast: 60 / 89 °F
Wind: 9 mph from North

Location: Leite Lopes / Ribeir

Current Time: Aug 3, 2015 at 11:17:42 AM

Latest Report: Aug 3, 2015 at 11:00 AM


Visibility: 10 mi

Pressure: 30.15 "Hg (28.33 "Hg at 549m altitude)

Humidity: 28%

Dew point: 46 °F

Location of Ribeirão PrêtoLocation

Historic Weather in Ribeirão Prêto — Graph

°F

Ribeirão Prêto temperature yesterday

Maximum temperature yesterday: 86 °F (at 4:00 PM)
Minimum temperature yesterday: 59 °F (at 5:00 AM)
Average temperature yesterday: 71 °F

Past Weeks' High & Low Weather Summary

 TemperatureHumidityPressure
High86 °F (Jul 21, 1:00 PM)100% (Jul 22, 6:00 AM)30.24 "Hg (Jul 22, 6:00 AM)
Low54 °F (Jul 28, 6:00 AM)22% (Jul 30, 3:00 PM)30.01 "Hg (Jul 21, 2:00 PM)
Average70 °F61%30.11 "Hg
* Reported Jul 19 10:00 AM — Aug 3 10:00 AM, Ribeirão Prêto, Weather by CustomWeather, © 2015

Note: Actual official high and low records may vary slightly from our data, if they occured in-between our weather recording intervals... More about our weather records

Advertising

Ribeirão Prêto weather history for previous 24 hours

 ConditionsComfort  
Time TempWeatherWind HumidityBarometerVisibility
10:00 AM
Mon, Aug 3
75 °FSunny.3 mph47%30.15 "Hg10 mi
9:00 AM66 °FSunny.6 mph64%30.15 "Hg10 mi
8:00 AM59 °FSunny.3 mph77%30.15 "Hg10 mi
7:00 AM55 °FSunny.3 mph88%30.09 "Hg10 mi
6:00 AM55 °FSunny.3 mph88%30.09 "Hg10 mi
5:00 AM55 °FClear.2 mph88%30.07 "Hg10 mi
4:00 AM59 °FClear.2 mph77%30.07 "Hg10 mi
3:00 AM61 °FClear.5 mph72%30.07 "Hg10 mi
2:00 AM61 °FClear.5 mph77%30.07 "Hg10 mi
1:00 AM64 °FClear.6 mph68%30.07 "Hg10 mi
12:00 AM63 °FClear.3 mph73%30.09 "Hg10 mi
11:00 PM
Sun, Aug 2
63 °FClear.3 mph73%30.09 "Hg10 mi
10:00 PM66 °FClear.5 mph64%30.07 "Hg10 mi
9:00 PM68 °FClear.No wind60%30.07 "Hg10 mi
8:00 PM73 °FClear.No wind44%30.04 "Hg10 mi
7:00 PM77 °FClear.2 mph39%30.04 "Hg10 mi
6:00 PM81 °FClear.3 mph30%30.04 "Hg10 mi
5:00 PM84 °FClear.6 mph25%30.01 "Hg10 mi
4:00 PM86 °FSunny.No wind24%30.01 "Hg10 mi
3:00 PM84 °FSunny.6 mph27%30.01 "Hg10 mi
2:00 PM84 °FSunny.8 mph25%30.04 "Hg10 mi
1:00 PM84 °FSunny.6 mph27%30.07 "Hg10 mi
12:00 PM82 °FSunny.5 mph30%30.09 "Hg10 mi
11:00 AM81 °FSunny.5 mph32%30.12 "Hg10 mi
Weather by CustomWeather, © 2015

See weather overviewHow to use our weather pages